This is the latest recevied weather packets stored in our database for station/object WB3IGR. If no packets are shown the sender has not sent any weather packets the latest 10 day(s).
| Time | Temp. | Humidity | Pressure | Rain* | Wind** | Luminosity | Snow |
|---|---|---|---|---|---|---|---|
| 1777439659 | 12.22° C | 72% | 1018.6 hPa | 0 mm | - | 0 W/m² | - |
| 1777439355 | 12.22° C | 72% | 1018.6 hPa | 0 mm | - | 0 W/m² | - |
| 1777439050 | 12.22° C | 73% | 1018.6 hPa | 0 mm | - | 0 W/m² | - |
| 1777438748 | 12.22° C | 73% | 1018.5 hPa | 0 mm | - | 0 W/m² | - |
| 1777438444 | 12.22° C | 72% | 1018.6 hPa | 0 mm | - | 0 W/m² | - |
| 1777438140 | 12.22° C | 73% | 1018.7 hPa | 0 mm | - | 0 W/m² | - |
| 1777437835 | 12.22° C | 73% | 1018.3 hPa | 0 mm | - | 0 W/m² | - |
| 1777437532 | 12.22° C | 74% | 1018.5 hPa | 0 mm | - | 0 W/m² | - |
| 1777437229 | 11.67° C | 77% | 1018.4 hPa | 0 mm | - | 0 W/m² | - |
| 1777436925 | 11.67° C | 79% | 1018.6 hPa | 0 mm | - | 0 W/m² | - |
| 1777436623 | 11.67° C | 81% | 1018.5 hPa | 0 mm | - | 0 W/m² | - |
| 1777436319 | 11.67° C | 80% | 1018.5 hPa | 0 mm | - | 0 W/m² | - |
| 1777436014 | 11.67° C | 81% | 1018.7 hPa | 0 mm | - | 0 W/m² | - |
| 1777435711 | 11.67° C | 81% | 1018.9 hPa | 0 mm | - | 0 W/m² | - |
| 1777435407 | 11.67° C | 82% | 1018.8 hPa | 0 mm | - | 0 W/m² | - |
| 1777435102 | 11.67° C | 83% | 1019 hPa | 0 mm | - | 0 W/m² | - |
| 1777434798 | 11.67° C | 83% | 1019.1 hPa | 0 mm | - | 0 W/m² | - |
| 1777434497 | 11.67° C | 83% | 1019 hPa | 0 mm | - | 0 W/m² | - |
| 1777434195 | 11.67° C | 83% | 1019.1 hPa | 0 mm | - | 0 W/m² | - |
| 1777433891 | 11.67° C | 83% | 1019.3 hPa | 0 mm | - | 0 W/m² | - |
| 1777433588 | 11.67° C | 84% | 1019.3 hPa | 0 mm | - | 0 W/m² | - |
| 1777433283 | 11.67° C | 84% | 1019.3 hPa | 0 mm | - | 0 W/m² | - |
| 1777432980 | 11.67° C | 84% | 1019.2 hPa | 0 mm | - | 0 W/m² | - |
| 1777432680 | 11.67° C | 82% | 1019.3 hPa | 0 mm | - | 0 W/m² | - |
| 1777432376 | 11.67° C | 82% | 1019.4 hPa | 0 mm | - | 0 W/m² | - |
* Rain latest hour (hover to see other rain measurements)
** Current wind speed in m/s (hover to see current wind gust speed)